"Period start","avg(HW err(1)/warn(2) (#))","avg(Visibility (m))","avg(Weather code (#))","avg(Precip intensity (mm/h))","min(HW err(1)/warn(2) (#))","max(HW err(1)/warn(2) (#))","std(HW err(1)/warn(2) (#))","med(HW err(1)/warn(2) (#))","min(Visibility (m))","max(Visibility (m))","std(Visibility (m))","med(Visibility (m))","min(Weather code (#))","max(Weather code (#))","std(Weather code (#))","med(Weather code (#))","min(Precip intensity (mm/h))","max(Precip intensity (mm/h))","std(Precip intensity (mm/h))","med(Precip intensity (mm/h))"
2014-09-29 00:00:00,2,43406,0,0.00,2,2,0,2,36329,50000,4031,43520,0,0,0,0,0.00,0.00,0.00,0.00
2014-09-29 00:10:00,2,43713,0,0.00,2,2,0,2,34508,50000,6566,45685,0,0,0,0,0.00,0.00,0.00,0.00
2014-09-29 00:20:00,2,46322,0,0.00,2,2,0,2,41189,50000,3462,47536,0,0,0,0,0.00,0.00,0.00,0.00
2014-09-29 00:30:00,2,46762,0,0.00,2,2,0,2,33101,50000,5069,49194,0,0,0,0,0.00,0.00,0.00,0.00
2014-09-29 00:40:00,2,44361,0,0.00,2,2,0,2,31542,50000,6529,46828,0,0,0,0,0.00,0.00,0.00,0.00
2014-09-29 00:50:00,2,43666,0,0.00,2,2,0,2,30970,50000,7311,46962,0,0,0,0,0.00,0.00,0.00,0.00
2014-09-29 01:00:00,2,40947,0,0.00,2,2,0,2,29071,50000,7779,41548,0,0,0,0,0.00,0.00,0.00,0.00
2014-09-29 01:10:00,2,39149,0,0.00,2,2,0,2,28675,43933,5397,41346,0,0,0,0,0.00,0.00,0.00,0.00
2014-09-29 01:20:00,2,39452,0,0.00,2,2,0,2,30314,46197,5086,39393,0,0,0,0,0.00,0.00,0.00,0.00
2014-09-29 01:30:00,2,44702,0,0.00,2,2,0,2,30244,50000,6456,47312,0,0,0,0,0.00,0.00,0.00,0.00
2014-09-29 01:40:00,2,47188,0,0.00,2,2,0,2,42584,50000,2477,47598,0,0,0,0,0.00,0.00,0.00,0.00
2014-09-29 01:50:00,2,47561,0,0.00,2,2,0,2,39763,50000,3216,48858,0,0,0,0,0.00,0.00,0.00,0.00
2014-09-29 02:00:00,2,45985,0,0.00,2,2,0,2,36948,50000,4579,48000,0,0,0,0,0.00,0.00,0.00,0.00
2014-09-29 02:10:00,2,48908,0,0.00,2,2,0,2,45486,50000,1527,50000,0,0,0,0,0.00,0.00,0.00,0.00
2014-09-29 02:20:00,2,45231,0,0.00,2,2,0,2,38721,50000,4660,47881,0,0,0,0,0.00,0.00,0.00,0.00
2014-09-29 02:30:00,2,46110,0,0.00,2,2,0,2,40029,50000,2984,45974,0,0,0,0,0.00,0.00,0.00,0.00
2014-09-29 02:40:00,2,44223,0,0.00,2,2,0,2,41012,50000,3094,43074,0,0,0,0,0.00,0.00,0.00,0.00
2014-09-29 02:50:00,2,39361,0,0.00,2,2,0,2,30566,46844,4934,38021,0,0,0,0,0.00,0.00,0.00,0.00
2014-09-29 03:00:00,2,36124,0,0.00,2,2,0,2,26092,50000,8676,31677,0,0,0,0,0.00,0.00,0.00,0.00
2014-09-29 03:10:00,2,40119,0,0.00,2,2,0,2,32174,50000,5009,40463,0,0,0,0,0.00,0.00,0.00,0.00
2014-09-29 03:20:00,2,41795,0,0.00,2,2,0,2,32095,50000,5404,41127,0,0,0,0,0.00,0.00,0.00,0.00
2014-09-29 03:30:00,2,39076,0,0.00,2,2,0,2,36174,47194,3103,38168,0,0,0,0,0.00,0.00,0.00,0.00
2014-09-29 03:40:00,2,37061,0,0.00,2,2,0,2,29441,48299,6085,35961,0,0,0,0,0.00,0.00,0.00,0.00
2014-09-29 03:50:00,2,37939,0,0.00,2,2,0,2,26292,46728,5644,36984,0,0,0,0,0.00,0.00,0.00,0.00
2014-09-29 04:00:00,2,40490,0,0.00,2,2,0,2,33693,46536,4292,40913,0,0,0,0,0.00,0.00,0.00,0.00
2014-09-29 04:10:00,2,40827,0,0.00,2,2,0,2,32072,49913,5015,41221,0,0,0,0,0.00,0.00,0.00,0.00
2014-09-29 04:20:00,2,36823,0,0.00,2,2,0,2,27227,42779,4870,37432,0,0,0,0,0.00,0.00,0.00,0.00
2014-09-29 04:30:00,2,38012,0,0.00,2,2,0,2,30635,47912,5100,38246,0,0,0,0,0.00,0.00,0.00,0.00
2014-09-29 04:40:00,2,42477,0,0.00,2,2,0,2,28076,50000,7316,45593,0,0,0,0,0.00,0.00,0.00,0.00
2014-09-29 04:50:00,2,43768,0,0.00,2,2,0,2,37418,50000,4288,43138,0,0,0,0,0.00,0.00,0.00,0.00
2014-09-29 05:00:00,2,44971,0,0.00,2,2,0,2,40788,50000,3035,43594,0,0,0,0,0.00,0.00,0.00,0.00
2014-09-29 05:10:00,2,44372,0,0.00,2,2,0,2,36768,50000,4651,45779,0,0,0,0,0.00,0.00,0.00,0.00
2014-09-29 05:20:00,2,46990,0,0.00,2,2,0,2,41615,50000,2654,46946,0,0,0,0,0.00,0.00,0.00,0.00
2014-09-29 05:30:00,2,43032,0,0.00,2,2,0,2,40009,46917,2509,42472,0,0,0,0,0.00,0.00,0.00,0.00
2014-09-29 05:40:00,2,47206,0,0.00,2,2,0,2,42758,50000,2396,47850,0,0,0,0,0.00,0.00,0.00,0.00
2014-09-29 05:50:00,2,47913,0,0.00,2,2,0,2,42437,50000,2858,49640,0,0,0,0,0.00,0.00,0.00,0.00
2014-09-29 06:00:00,2,48601,0,0.00,2,2,0,2,45204,50000,1627,49156,0,0,0,0,0.00,0.00,0.00,0.00
2014-09-29 06:10:00,2,49406,0,0.00,2,2,0,2,46277,50000,1135,50000,0,0,0,0,0.00,0.00,0.00,0.00
2014-09-29 06:20:00,2,48518,0,0.00,2,2,0,2,43808,50000,2230,49754,0,0,0,0,0.00,0.00,0.00,0.00
2014-09-29 06:30:00,2,47664,0,0.00,2,2,0,2,41372,50000,3137,49654,0,0,0,0,0.00,0.00,0.00,0.00
2014-09-29 06:40:00,2,49199,0,0.00,2,2,0,2,46027,50000,1387,50000,0,0,0,0,0.00,0.00,0.00,0.00
2014-09-29 06:50:00,2,48178,0,0.00,2,2,0,2,43500,50000,2210,49090,0,0,0,0,0.00,0.00,0.00,0.00
2014-09-29 07:00:00,2,49991,0,0.00,2,2,0,2,49906,50000,28,50000,0,0,0,0,0.00,0.00,0.00,0.00
2014-09-29 07:10:00,2,49843,0,0.00,2,2,0,2,48685,50000,393,50000,0,0,0,0,0.00,0.00,0.00,0.00
2014-09-29 07:20:00,2,49863,0,0.00,2,2,0,2,49392,50000,220,50000,0,0,0,0,0.00,0.00,0.00,0.00
2014-09-29 07:30:00,2,49927,0,0.00,2,2,0,2,49267,50000,220,50000,0,0,0,0,0.00,0.00,0.00,0.00
2014-09-29 07:40:00,2,50000,0,0.00,2,2,0,2,50000,50000,0,50000,0,0,0,0,0.00,0.00,0.00,0.00
2014-09-29 07:50:00,2,50000,0,0.00,2,2,0,2,50000,50000,0,50000,0,0,0,0,0.00,0.00,0.00,0.00
2014-09-29 08:00:00,2,49677,0,0.00,2,2,0,2,48508,50000,527,50000,0,0,0,0,0.00,0.00,0.00,0.00
2014-09-29 08:10:00,2,49983,0,0.00,2,2,0,2,49834,50000,50,50000,0,0,0,0,0.00,0.00,0.00,0.00
2014-09-29 08:20:00,2,49979,0,0.00,2,2,0,2,49788,50000,64,50000,0,0,0,0,0.00,0.00,0.00,0.00
2014-09-29 08:30:00,2,50000,0,0.00,2,2,0,2,50000,50000,0,50000,0,0,0,0,0.00,0.00,0.00,0.00
2014-09-29 08:40:00,2,50000,0,0.00,2,2,0,2,50000,50000,0,50000,0,0,0,0,0.00,0.00,0.00,0.00
2014-09-29 08:50:00,2,49927,0,0.00,2,2,0,2,49267,50000,220,50000,0,0,0,0,0.00,0.00,0.00,0.00
2014-09-29 09:00:00,2,50000,0,0.00,2,2,0,2,50000,50000,0,50000,0,0,0,0,0.00,0.00,0.00,0.00
2014-09-29 09:10:00,2,49715,0,0.00,2,2,0,2,47146,50000,856,50000,0,0,0,0,0.00,0.00,0.00,0.00
2014-09-29 09:20:00,2,49997,0,0.00,2,2,0,2,49966,50000,10,50000,0,0,0,0,0.00,0.00,0.00,0.00
2014-09-29 09:30:00,2,49645,0,0.00,2,2,0,2,46452,50000,1064,50000,0,0,0,0,0.00,0.00,0.00,0.00
2014-09-29 09:40:00,2,49729,0,0.00,2,2,0,2,48392,50000,554,50000,0,0,0,0,0.00,0.00,0.00,0.00
2014-09-29 09:50:00,2,49122,0,0.00,2,2,0,2,45724,50000,1350,50000,0,0,0,0,0.00,0.00,0.00,0.00
2014-09-29 10:00:00,2,49845,0,0.00,2,2,0,2,48453,50000,464,50000,0,0,0,0,0.00,0.00,0.00,0.00
2014-09-29 10:10:00,2,48446,0,0.00,2,2,0,2,40595,50000,2811,49853,0,0,0,0,0.00,0.00,0.00,0.00
2014-09-29 10:20:00,2,38681,0,0.00,2,2,0,2,20518,50000,11549,44294,0,0,0,0,0.00,0.00,0.00,0.00
2014-09-29 10:30:00,2,15134,53,0.01,2,2,0,2,12812,17496,1561,15014,0,77,24,56,0.00,0.05,0.02,0.00
2014-09-29 10:40:00,2,15837,76,0.02,2,2,0,2,13794,21762,2172,14892,71,77,2,77,0.00,0.05,0.02,0.00
2014-09-29 10:50:00,2,17781,74,0.00,2,2,0,2,12906,21857,3011,18022,71,77,3,74,0.00,0.00,0.00,0.00
2014-09-29 11:00:00,2,15980,76,0.00,2,2,0,2,11981,19249,2441,16367,71,77,2,77,0.00,0.00,0.00,0.00
2014-09-29 11:10:00,2,12621,75,0.01,2,2,0,2,10948,17612,2027,11897,71,77,3,77,0.00,0.05,0.02,0.00
2014-09-29 11:20:00,2,13689,75,0.01,2,2,0,2,11451,16533,1682,13615,71,77,3,77,0.00,0.05,0.02,0.00
2014-09-29 11:30:00,2,25680,75,0.00,2,2,0,2,15937,37417,7599,27214,71,77,3,77,0.00,0.00,0.00,0.00
2014-09-29 11:40:00,2,35298,30,0.00,2,2,0,2,23051,47732,7956,36320,0,77,36,0,0.00,0.00,0.00,0.00
2014-09-29 11:50:00,2,48144,0,0.00,2,2,0,2,37058,50000,3962,49965,0,0,0,0,0.00,0.00,0.00,0.00
2014-09-29 12:00:00,2,49981,0,0.00,2,2,0,2,49809,50000,57,50000,0,0,0,0,0.00,0.00,0.00,0.00
2014-09-29 12:10:00,2,49720,0,0.00,2,2,0,2,47561,50000,728,50000,0,0,0,0,0.00,0.00,0.00,0.00
2014-09-29 12:20:00,2,49953,0,0.00,2,2,0,2,49532,50000,140,50000,0,0,0,0,0.00,0.00,0.00,0.00
2014-09-29 12:30:00,2,50000,0,0.00,2,2,0,2,50000,50000,0,50000,0,0,0,0,0.00,0.00,0.00,0.00
2014-09-29 12:40:00,2,50000,0,0.00,2,2,0,2,50000,50000,0,50000,0,0,0,0,0.00,0.00,0.00,0.00
2014-09-29 12:50:00,2,49928,0,0.00,2,2,0,2,49282,50000,215,50000,0,0,0,0,0.00,0.00,0.00,0.00
2014-09-29 13:00:00,2,49977,0,0.00,2,2,0,2,49771,50000,69,50000,0,0,0,0,0.00,0.00,0.00,0.00
2014-09-29 13:10:00,2,50000,0,0.00,2,2,0,2,50000,50000,0,50000,0,0,0,0,0.00,0.00,0.00,0.00
2014-09-29 13:20:00,2,50000,0,0.00,2,2,0,2,50000,50000,0,50000,0,0,0,0,0.00,0.00,0.00,0.00
2014-09-29 13:30:00,2,49738,0,0.00,2,2,0,2,47384,50000,785,50000,0,0,0,0,0.00,0.00,0.00,0.00
2014-09-29 13:40:00,2,43828,36,0.00,2,2,0,2,22263,50000,9281,49013,0,71,32,40,0.00,0.00,0.00,0.00
2014-09-29 13:50:00,2,23896,75,0.03,2,2,0,2,13242,47066,9315,20892,71,77,3,77,0.00,0.05,0.03,0.03
2014-09-29 14:00:00,2,32180,75,0.00,2,2,0,2,23134,43532,5360,32000,71,77,3,77,0.00,0.00,0.00,0.00
2014-09-29 14:10:00,2,47278,60,0.00,2,2,0,2,36982,50000,4285,49777,0,77,30,77,0.00,0.00,0.00,0.00
2014-09-29 14:20:00,2,49797,0,0.00,2,2,0,2,47968,50000,610,50000,0,0,0,0,0.00,0.00,0.00,0.00
2014-09-29 14:30:00,2,46494,0,0.00,2,2,0,2,27357,50000,6840,50000,0,0,0,0,0.00,0.00,0.00,0.00
2014-09-29 14:40:00,2,18621,66,0.01,2,2,0,2,13507,26204,3614,18299,0,77,22,71,0.00,0.05,0.02,0.00
2014-09-29 14:50:00,2,14458,76,0.01,2,2,0,2,12136,20305,2355,13589,71,77,2,77,0.00,0.05,0.02,0.00
2014-09-29 15:00:00,2,24726,75,0.00,2,2,0,2,11800,47866,13580,17206,71,77,3,77,0.00,0.00,0.00,0.00
2014-09-29 15:10:00,2,49920,0,0.00,2,2,0,2,49447,50000,174,50000,0,0,0,0,0.00,0.00,0.00,0.00
2014-09-29 15:20:00,2,39781,7,0.00,2,2,0,2,24518,50000,8197,39797,0,71,21,0,0.00,0.00,0.00,0.00
2014-09-29 15:30:00,2,12761,75,0.04,2,2,0,2,9197,22271,4215,10894,71,77,3,77,0.00,0.10,0.03,0.05
2014-09-29 15:40:00,2,10290,77,0.06,2,2,0,2,9279,11473,723,10377,77,77,0,77,0.00,0.10,0.03,0.05
2014-09-29 15:50:00,2,10863,77,0.05,2,2,0,2,8749,14125,1469,10735,77,77,0,77,0.00,0.10,0.03,0.05
2014-09-29 16:00:00,2,22989,73,0.00,2,2,0,2,13297,30409,6711,25058,71,77,3,71,0.00,0.00,0.00,0.00
2014-09-29 16:10:00,2,19016,76,0.01,2,2,0,2,12921,24719,4044,20294,71,77,2,77,0.00,0.05,0.02,0.00
2014-09-29 16:20:00,2,12760,74,0.07,2,2,0,2,10200,16674,1905,12318,71,77,3,74,0.00,0.20,0.05,0.05
2014-09-29 16:30:00,2,15150,71,0.09,2,2,0,2,9899,27879,5357,13443,71,71,0,71,0.00,0.20,0.08,0.05
2014-09-29 16:40:00,2,12407,75,0.10,2,2,0,2,7598,25931,5401,10486,71,77,3,77,0.00,0.25,0.08,0.10
2014-09-29 16:50:00,2,17904,76,0.04,2,2,0,2,12179,24236,3756,17700,71,77,2,77,0.00,0.10,0.03,0.05
2014-09-29 17:00:00,2,28510,74,0.02,2,2,0,2,20715,38773,5819,28758,71,77,3,74,0.00,0.05,0.02,0.00
2014-09-29 17:10:00,2,25429,76,0.02,2,2,0,2,16014,35916,7913,25070,71,77,2,77,0.00,0.05,0.02,0.00
2014-09-29 17:20:00,2,15310,77,0.03,2,2,0,2,12697,20071,2165,14371,77,77,0,77,0.00,0.05,0.03,0.03
2014-09-29 17:30:00,2,13525,75,0.03,2,2,0,2,11174,16988,1949,12396,71,77,3,77,0.00,0.10,0.03,0.03
2014-09-29 17:40:00,2,28499,74,0.00,2,2,0,2,16943,35737,7027,32282,71,77,3,74,0.00,0.00,0.00,0.00
2014-09-29 17:50:00,2,39512,66,0.00,2,2,0,2,31709,50000,5746,38972,0,77,22,71,0.00,0.00,0.00,0.00
2014-09-29 18:00:00,2,37152,0,0.00,2,2,0,2,19558,50000,11088,37976,0,0,0,0,0.00,0.00,0.00,0.00
2014-09-29 18:10:00,2,39764,0,0.00,2,2,0,2,27654,49374,5629,40307,0,0,0,0,0.00,0.00,0.00,0.00
2014-09-29 18:20:00,2,48396,0,0.00,2,2,0,2,44597,50000,1624,48421,0,0,0,0,0.00,0.00,0.00,0.00
2014-09-29 18:30:00,2,49448,0,0.00,2,2,0,2,46768,50000,1124,50000,0,0,0,0,0.00,0.00,0.00,0.00
2014-09-29 18:40:00,2,49809,0,0.00,2,2,0,2,48858,50000,378,50000,0,0,0,0,0.00,0.00,0.00,0.00
2014-09-29 18:50:00,2,46068,0,0.00,2,2,0,2,36187,50000,5534,50000,0,0,0,0,0.00,0.00,0.00,0.00
2014-09-29 19:00:00,2,45418,0,0.00,2,2,0,2,40504,50000,3115,45821,0,0,0,0,0.00,0.00,0.00,0.00
2014-09-29 19:10:00,2,29671,38,0.01,2,2,0,2,19125,44850,9686,24510,0,77,28,40,0.00,0.05,0.02,0.00
2014-09-29 19:20:00,2,21991,73,0.03,2,2,0,2,13931,31720,4971,22978,71,77,3,71,0.00,0.25,0.07,0.00
2014-09-29 19:30:00,2,10510,73,0.12,2,2,0,2,7453,14612,2444,10024,71,77,3,71,0.05,0.25,0.07,0.10
2014-09-29 19:40:00,2,9992,71,0.14,2,2,0,2,8837,11356,759,9976,71,71,0,71,0.05,0.35,0.09,0.10
2014-09-29 19:50:00,2,10322,75,0.11,2,2,0,2,8873,11908,1104,10128,71,77,3,77,0.05,0.25,0.06,0.10
2014-09-29 20:00:00,2,8871,73,0.18,2,2,0,2,6844,10376,1058,8944,71,77,3,71,0.10,0.35,0.08,0.15
2014-09-29 20:10:00,2,7768,71,0.33,2,2,0,2,6990,9061,539,7714,71,71,0,71,0.10,0.70,0.17,0.30
2014-09-29 20:20:00,2,12518,72,0.12,2,2,0,2,7151,19815,4274,11657,71,77,2,71,0.00,0.35,0.13,0.05
2014-09-29 20:30:00,2,36173,73,0.00,2,2,0,2,20972,49613,9100,35986,71,77,3,71,0.00,0.00,0.00,0.00
2014-09-29 20:40:00,2,42324,73,0.01,2,2,0,2,29782,50000,7310,45508,71,77,3,71,0.00,0.05,0.02,0.00
2014-09-29 20:50:00,2,27230,74,0.01,2,2,0,2,21377,32447,3160,27714,71,77,3,74,0.00,0.05,0.02,0.00
2014-09-29 21:00:00,2,19347,73,0.05,2,2,0,2,13613,25497,3028,19487,71,77,3,71,0.00,0.10,0.04,0.05
2014-09-29 21:10:00,2,10171,71,0.17,2,2,0,2,8740,14601,1828,9449,71,71,0,71,0.00,0.40,0.11,0.17
2014-09-29 21:20:00,2,10317,71,0.24,2,2,0,2,9326,11335,741,10430,71,71,0,71,0.05,0.60,0.19,0.17
2014-09-29 21:30:00,2,8351,71,0.51,2,2,0,2,6862,10569,1145,8047,71,71,0,71,0.10,1.05,0.25,0.45
2014-09-29 21:40:00,2,6470,71,1.06,2,2,0,2,5578,7359,622,6454,71,71,0,71,0.50,2.15,0.45,1.00
2014-09-29 21:50:00,2,10427,71,0.53,2,2,0,2,7215,14727,2117,10158,71,71,0,71,0.05,1.05,0.36,0.53
2014-09-29 22:00:00,2,16791,71,0.09,2,2,0,2,13124,24934,3382,15866,71,71,0,71,0.00,0.40,0.11,0.05
2014-09-29 22:10:00,2,38745,75,0.02,2,2,0,2,24993,50000,9020,41551,71,77,3,77,0.00,0.05,0.02,0.00
2014-09-29 22:20:00,2,14044,72,0.47,2,2,0,2,10305,38225,8136,11161,71,77,2,71,0.00,0.95,0.29,0.45
2014-09-29 22:30:00,2,7641,71,0.81,2,2,0,2,5160,10737,1620,7785,71,71,0,71,0.35,1.35,0.32,0.82
2014-09-29 22:40:00,2,2764,71,3.31,2,2,0,2,1668,5367,1048,2489,71,71,0,71,1.10,5.50,1.54,3.12
2014-09-29 22:50:00,2,1966,71,4.67,2,2,0,2,1549,2358,256,1901,71,71,0,71,3.00,6.15,0.90,4.65
2014-09-29 23:00:00,2,1976,71,4.12,2,2,0,2,1498,2642,340,1894,71,71,0,71,3.00,5.80,0.78,4.08
2014-09-29 23:10:00,2,2179,71,3.16,2,2,0,2,1604,3490,531,1977,71,71,0,71,2.00,4.00,0.56,3.35
2014-09-29 23:20:00,2,2709,71,2.69,2,2,0,2,2178,3221,291,2661,71,71,0,71,1.90,3.40,0.58,2.75
2014-09-29 23:30:00,2,2484,71,2.96,2,2,0,2,1474,3897,701,2225,71,71,0,71,1.75,3.90,0.66,3.10
2014-09-29 23:40:00,2,1986,71,3.01,2,2,0,2,1662,2345,228,1964,71,71,0,71,1.50,3.75,0.66,3.20
2014-09-29 23:50:00,2,2308,71,3.51,2,2,0,2,1932,2779,261,2206,71,71,0,71,1.80,6.10,1.10,3.48
